Temperature
24 25 24 24 24 24 24 24 24 24 23 23 23 23 22 20 20 20 20 20 20 19 19 19 19 20 20 21 21 21 21 21 20 20 20 19 19 19 18 18 18 18 17 17
25 24 23 23 23 23 23 23 24 24 22 23 23 23 21 20 19 19 19 19 19 18 18 18 18 19 20 20 21 21 21 21 20 20 20 20 19 19 19 19 18 18 17 17
23 22 23 23 23 23 23 22 23 22 22 22 22 23 21 20 20 19 19 18 18 17 16 16 16 17 18 19 20 21 22 21 20 20 19 20 20 20 19 19 18 18 18 17
22 22 22 22 21 21 22 21 21 21 21 22 22 22 22 20 20 20 19 18 17 16 15 15 15 16 17 18 19 20 21 21 20 19 19 20 20 19 19 18 18 18 17 17
21 20 20 20 20 20 20 20 20 20 21 21 22 21 22 20 19 19 18 17 17 16 15 15 15 15 16 16 18 19 19 20 19 18 18 19 19 18 18 17 17 17 17 17
20 20 19 19 20 19 20 20 20 20 20 20 22 21 21 19 18 18 18 17 16 16 16 15 15 15 15 16 16 17 17 17 17 17 17 18 18 18 17 16 16 17 17 17
20 19 19 18 18 19 19 18 19 19 19 20 20 20 18 17 17 17 16 16 16 16 16 15 15 14 15 15 16 16 16 16 16 16 16 16 16 17 16 16 16 16 16 17
19 18 18 17 17 17 17 17 16 16 17 18 19 18 15 16 16 16 15 15 15 15 15 15 14 14 14 15 15 15 15 15 15 15 15 15 15 15 15 15 15 15 16 16
18 18 17 17 16 16 15 16 16 15 16 16 18 18 16 17 16 15 15 14 14 14 14 14 13 13 14 14 14 14 14 14 14 14 14 14 14 14 14 14 15 15 15 16
18 17 17 17 17 15 14 14 15 14 15 15 16 15 14 14 14 14 14 13 13 13 14 14 13 13 13 13 14 14 14 14 13 13 14 14 14 14 14 14 14 15 15 16
18 18 17 16 14 12 12 12 13 14 13 12 13 12 11 10 10 11 11 11 12 12 13 13 13 12 13 13 13 13 13 13 13 13 13 14 14 14 14 14 14 15 16 16
17 18 17 15 14 14 12 12 13 13 13 12 11 11 10 10 10 10 10 11 11 12 12 12 12 13 13 13 13 13 13 13 13 13 13 13 13 14 14 14 14 15 16 16
16 17 17 16 15 14 13 13 14 13 12 11 10 10 10 10 10 9 10 10 10 11 12 12 12 12 13 13 13 13 13 13 13 13 13 13 13 13 13 14 14 15 15 15
16 17 16 14 13 12 12 12 13 13 11 10 10 10 10 10 10 9 9 10 10 11 11 12 12 12 12 12 13 13 13 13 13 13 13 13 13 13 14 14 14 15 15 15
17 17 15 14 14 14 13 12 12 11 10 10 10 10 10 10 10 10 10 10 11 11 11 12 11 12 12 12 13 13 13 13 13 13 13 14 14 14 14 14 15 15 15 15
17 16 16 15 14 14 13 13 12 11 11 11 11 11 11 11 11 11 11 11 12 12 12 12 12 12 12 12 12 13 13 13 12 12 12 13 13 13 13 13 14 14 14 14
16 17 17 16 15 15 15 13 12 11 11 11 11 11 12 13 12 12 12 12 12 12 12 12 12 12 12 12 12 12 12 12 12 12 12 12 12 12 13 13 13 14 14 14
16 16 17 17 16 16 15 14 13 12 12 12 12 12 13 13 13 13 12 12 12 12 13 12 12 12 12 12 12 12 12 12 12 12 12 12 12 12 12 13 13 13 13 13
15 16 17 17 16 16 15 14 14 14 14 13 13 13 13 14 16 15 13 12 12 12 13 13 13 13 13 12 13 13 13 12 12 11 11 11 11 12 12 12 12 12 12 11
15 15 17 17 17 17 16 15 13 14 15 14 14 14 14 15 17 15 13 12 13 13 13 13 13 13 13 13 13 13 13 12 11 11 11 11 11 11 11 11 11 11 11 11
16 16 16 17 17 17 15 13 13 15 16 14 13 13 13 14 14 13 12 12 13 13 14 14 14 14 14 13 14 14 13 12 12 11 11 11 11 11 11 11 11 11 11 11
17 17 16 17 17 16 13 13 15 16 14 13 13 13 12 12 12 13 13 13 13 14 14 14 14 14 14 14 14 14 13 13 12 12 11 11 11 11 11 11 11 11 11 11
16 16 16 17 17 14 13 14 13 12 13 13 13 12 12 12 12 12 13 13 13 14 14 15 15 14 14 14 14 14 13 13 13 12 11 11 11 11 11 11 11 11 11 10
16 14 15 15 15 14 13 13 12 12 12 12 12 12 12 12 12 12 13 13 13 13 14 15 15 15 15 15 14 14 14 14 13 12 12 11 11 11 11 11 11 11 10 10
17 15 15 15 16 14 13 13 13 12 12 12 12 12 12 12 12 12 13 13 13 13 14 14 15 15 15 15 15 15 15 15 13 12 12 12 11 11 11 11 11 10 10 10
16 15 16 17 16 16 15 14 13 12 12 12 12 12 12 12 12 12 12 12 13 13 13 14 14 15 15 15 15 15 15 15 14 13 12 12 11 11 11 10 10 10 10 10
Wind_Speed
1 2 5 6 5 5 5 7 7 4 2 3 3 2 3 6 8 10 11 11 12 13 13 12 11 10 10 12 15 16 16 16 14 13 12 11 11 10 9 9 10 11 12 12
4 8 8 4 3 3 6 9 9 4 1 4 6 4 3 5 9 10 12 13 14 16 16 15 13 10 10 11 15 18 18 17 17 14 14 12 11 9 9 8 9 11 12 11
8 8 7 6 9 7 6 7 9 9 5 6 8 8 6 1 5 9 11 13 14 16 17 18 15 13 11 10 12 13 15 15 15 15 11 10 9 6 6 8 8 10 11 11
7 10 9 9 12 12 9 7 9 9 10 9 6 9 6 1 3 10 13 15 16 16 16 16 15 13 11 11 10 9 9 11 13 12 12 14 9 6 6 6 7 9 10 10
7 11 13 13 13 11 10 11 11 11 13 14 11 10 6 1 4 10 14 16 16 16 16 15 14 12 10 10 8 4 4 7 9 9 9 9 7 5 3 1 4 7 7 8
10 9 10 13 11 9 12 12 12 10 11 16 15 13 6 3 8 13 15 16 16 16 15 14 12 11 10 9 8 4 5 7 8 10 10 11 12 11 7 2 2 3 3 4
5 11 11 14 15 11 14 12 6 7 9 8 4 6 4 9 9 12 15 16 16 15 14 14 13 11 10 9 8 7 8 8 7 7 8 9 9 11 9 5 1 2 4 5
7 7 13 13 13 11 11 10 6 6 6 6 5 3 6 9 9 12 13 14 15 15 14 13 12 10 8 7 6 6 9 10 9 7 8 9 8 7 7 6 1 4 6 6
7 6 10 11 13 12 10 7 6 7 9 8 5 2 4 10 14 15 15 16 16 16 13 12 11 10 9 7 6 4 7 9 8 8 9 9 9 9 7 4 1 5 6 6
6 4 8 9 9 14 8 7 5 5 5 5 4 3 8 19 20 19 17 17 16 15 11 10 10 11 12 11 10 7 6 6 6 7 8 9 10 9 4 0 5 7 6 6
5 4 6 7 11 14 10 6 4 3 2 4 4 2 7 14 15 15 15 14 13 13 10 10 10 11 12 12 11 9 5 5 5 7 8 8 7 5 1 3 5 5 4 5
4 2 5 6 5 7 9 8 5 4 4 4 4 2 7 13 12 12 12 12 11 11 11 11 11 12 12 11 10 8 6 6 6 6 6 6 4 2 2 4 3 2 1 3
2 2 0 3 3 10 8 13 8 3 4 5 5 6 11 15 17 16 15 14 13 13 12 11 12 12 12 11 10 9 9 10 8 6 4 4 2 2 3 2 1 2 3 2
1 6 7 6 4 6 8 13 12 7 5 5 7 9 14 20 20 19 17 16 14 14 13 12 12 13 13 13 13 12 11 10 7 5 3 3 3 2 1 2 2 3 4 4
0 5 8 8 3 7 11 12 12 11 8 6 8 9 12 17 17 16 15 14 14 14 13 13 13 13 13 14 14 13 13 11 8 6 4 3 2 2 3 3 4 4 4 4
0 5 6 4 2 1 7 11 10 9 7 7 7 6 10 14 12 13 13 12 13 13 13 13 13 14 14 13 13 13 14 12 11 10 10 8 7 7 6 6 5 6 7 6
2 4 4 3 3 5 4 6 6 5 6 4 4 6 13 13 12 12 11 11 11 12 13 13 13 13 12 11 12 13 12 12 13 13 13 12 11 11 10 9 9 9 9 9
1 3 2 2 5 2 4 2 1 0 2 3 6 9 11 10 6 9 11 11 11 11 11 11 11 11 11 10 10 10 11 12 13 13 13 12 11 11 10 11 11 11 10 10
1 2 2 1 2 4 4 4 3 1 2 1 5 8 11 11 5 12 15 13 10 9 9 9 9 9 9 9 9 10 11 11 11 11 10 10 10 10 11 11 11 10 9 9
2 1 2 2 2 2 5 7 3 3 3 2 3 7 10 11 8 10 15 13 11 9 9 9 8 7 8 7 7 9 9 10 9 9 9 9 9 9 9 9 9 8 7 7
3 3 3 3 2 2 6 6 5 2 4 3 3 6 8 7 7 10 11 10 9 8 8 8 7 7 6 6 7 10 10 9 8 8 9 9 9 9 8 8 8 8 7 7
3 3 4 3 4 3 8 7 5 2 3 1 2 5 6 7 8 9 10 10 11 10 9 8 8 7 6 6 7 9 9 6 5 5 6 7 6 6 6 7 7 8 7 6
5 4 3 4 1 4 8 6 2 1 1 1 3 5 5 6 8 10 10 10 10 9 9 8 8 8 7 6 6 7 6 4 4 5 5 4 4 5 5 6 6 6 6 5
4 4 4 6 7 7 8 8 6 5 3 2 4 4 4 6 8 9 9 9 9 9 9 8 9 9 8 7 6 5 4 3 3 4 4 4 4 4 4 4 4 5 5 6
5 7 5 6 5 7 11 11 9 7 5 3 2 2 4 6 7 9 9 9 9 9 9 8 8 9 10 9 7 5 4 3 3 3 3 3 3 3 4 4 4 4 5 6
8 9 7 4 7 8 9 14 12 10 7 5 2 1 2 4 7 9 9 9 9 9 9 9 9 9 10 9 7 6 5 3 3 2 2 2 3 3 4 3 3 2 1 3
Wind_Direction
125 36 5 342 320 300 289 272 269 287 345 298 282 304 65 32 21 11 2 354 345 336 328 320 302 285 266 251 245 237 227 216 207 197 196 192 195 195 198 205 210 212 213 216
164 37 18 36 18 290 276 275 279 277 248 278 273 263 137 49 28 18 4 357 352 345 341 338 325 304 292 257 241 236 228 217 209 202 197 194 192 193 190 195 208 215 217 216
74 32 24 36 20 334 294 301 300 292 274 239 264 242 185 124 16 19 14 3 358 354 346 342 338 333 324 298 261 242 227 211 201 199 193 181 170 163 171 188 203 213 217 216
68 30 23 22 17 351 307 345 311 287 268 255 240 275 201 50 9 14 10 4 1 358 352 347 344 344 344 333 311 262 214 197 188 184 184 182 178 170 175 181 193 202 207 208
66 37 32 20 1 347 328 318 297 280 267 266 245 260 238 119 4 4 1 359 358 356 353 351 351 347 346 345 343 337 148 154 158 165 171 157 130 101 70 78 196 192 196 200
75 50 33 8 351 352 330 304 277 253 255 254 255 253 243 60 6 354 354 354 354 349 344 345 349 350 350 358 8 33 104 124 141 154 155 144 133 118 100 54 259 212 196 196
68 56 29 10 359 358 352 336 294 259 243 253 334 263 84 44 14 1 353 351 349 343 342 343 345 349 349 355 11 37 74 75 87 121 127 124 127 121 120 117 307 262 225 213
12 38 24 17 13 348 350 349 337 303 294 303 298 279 96 28 14 3 359 354 348 346 348 350 349 349 353 350 3 36 66 60 56 80 99 110 115 109 108 109 118 255 246 230
18 44 33 30 30 17 348 356 339 299 292 285 270 143 123 4 360 358 357 353 349 348 354 0 2 4 7 9 8 35 79 71 57 65 83 92 96 93 94 98 230 246 241 229
9 47 38 29 23 25 5 329 321 331 321 303 305 18 357 346 342 343 345 341 339 340 354 9 10 12 15 18 23 40 78 89 71 65 72 82 83 83 83 45 267 253 225 201
9 49 64 46 28 11 6 4 343 324 312 305 311 11 353 325 325 326 325 329 336 342 1 14 10 4 360 1 5 13 44 76 82 82 83 85 86 85 58 281 266 254 220 198
15 6 82 71 53 21 19 13 353 348 343 308 298 348 348 336 344 343 344 352 3 13 22 16 5 358 353 349 351 2 28 56 73 77 80 85 86 91 257 256 247 228 206 211
44 357 229 141 49 16 15 17 8 340 332 348 346 343 348 -0 8 8 11 18 21 27 29 22 15 10 8 11 20 35 43 45 49 61 79 92 118 185 233 221 155 125 121 139
345 57 60 77 61 12 11 16 21 28 16 4 9 359 359 1 6 9 16 20 21 25 26 26 24 23 24 29 37 46 45 36 33 44 71 114 148 179 154 94 99 94 93 93
248 98 102 113 106 20 33 26 29 37 26 24 22 21 358 353 359 9 13 14 19 24 26 27 29 28 27 30 37 43 45 40 41 54 71 85 110 117 106 94 74 59 58 62
171 141 143 138 178 28 48 32 26 26 21 32 45 31 338 341 0 14 16 14 21 27 30 32 33 33 30 30 36 44 47 49 56 65 73 81 90 91 87 76 64 53 44 38
189 180 183 132 153 183 65 29 20 27 21 10 16 333 327 346 7 16 16 20 29 34 37 38 37 37 34 34 36 42 43 50 55 58 59 61 62 62 60 62 58 51 47 44
199 196 201 170 190 127 96 122 285 290 17 348 326 327 338 350 22 46 30 21 23 25 30 32 32 36 38 40 41 41 41 46 50 51 51 52 55 57 56 55 52 48 48 51
27 233 241 218 132 129 163 192 213 202 98 7 342 351 358 349 82 53 23 10 8 8 14 22 24 30 39 41 40 49 50 50 49 48 48 49 53 53 50 48 46 44 47 53
112 197 248 243 238 166 138 141 166 240 155 118 359 5 5 7 38 23 359 354 358 359 5 8 13 27 39 39 41 51 55 54 51 47 48 48 48 51 51 49 46 47 50 51
213 207 228 238 253 127 130 143 179 215 106 109 14 3 1 7 356 336 342 357 3 360 354 352 0 21 21 18 31 46 47 48 45 41 40 40 41 43 39 36 33 29 32 36
241 222 213 218 228 173 151 168 201 55 93 94 8 355 347 344 344 348 354 1 6 6 360 351 349 0 7 5 11 36 41 44 50 50 46 43 39 32 28 28 30 29 27 36
227 237 251 236 326 108 180 202 211 204 203 41 355 346 339 343 352 353 355 359 1 2 359 351 342 335 342 356 353 5 21 23 37 44 47 40 40 39 30 28 36 39 39 43
211 205 233 248 235 209 203 215 215 209 231 311 327 326 328 341 349 353 355 356 356 355 353 347 340 331 332 339 337 339 349 351 8 28 31 30 25 37 51 48 47 51 50 47
218 191 220 238 214 196 210 212 205 196 209 243 283 298 322 336 347 351 351 355 352 349 346 342 337 329 325 329 336 345 343 329 339 1 10 12 19 21 44 67 59 64 65 37
203 199 201 220 197 193 196 194 192 191 198 206 221 286 331 338 345 349 351 351 347 345 343 342 345 343 340 339 344 353 342 312 300 312 345 5 24 29 29 61 121 115 70 22
Height
1522 1520 1523 1522 1520 1520 1519 1519 1518 1517 1519 1519 1518 1520 1522 1525 1524 1522 1519 1517 1515 1513 1511 1509 1507 1506 1505 1506 1508 1510 1513 1516 1519 1521 1523 1525 1527 1529 1531 1533 1535 1536 1537 1539
1521 1527 1527 1525 1524 1522 1520 1520 1518 1516 1519 1518 1516 1517 1521 1524 1523 1522 1520 1517 1515 1512 1509 1506 1504 1503 1502 1502 1503 1504 1506 1508 1511 1514 1518 1520 1523 1525 1527 1530 1532 1534 1535 1536
1528 1534 1529 1527 1526 1523 1521 1522 1520 1520 1518 1518 1517 1515 1519 1521 1521 1521 1520 1518 1515 1513 1508 1504 1501 1500 1498 1497 1497 1497 1498 1500 1503 1507 1511 1513 1517 1520 1523 1526 1528 1530 1532 1533
1532 1535 1533 1531 1533 1530 1524 1526 1525 1522 1521 1515 1516 1518 1511 1517 1518 1518 1518 1517 1515 1512 1508 1504 1500 1497 1494 1492 1491 1492 1492 1493 1496 1500 1503 1507 1512 1515 1518 1521 1524 1527 1528 1530
1538 1539 1539 1540 1539 1536 1532 1530 1526 1523 1520 1518 1514 1519 1508 1516 1518 1518 1519 1517 1514 1512 1508 1504 1500 1496 1493 1490 1488 1487 1488 1489 1491 1495 1499 1502 1506 1509 1513 1517 1521 1523 1525 1527
1542 1544 1545 1545 1541 1539 1534 1529 1522 1520 1519 1521 1509 1512 1510 1519 1523 1522 1520 1518 1515 1512 1508 1505 1501 1496 1493 1490 1488 1486 1486 1487 1488 1491 1494 1497 1501 1503 1508 1513 1519 1522 1523 1525
1542 1546 1549 1549 1544 1540 1536 1534 1529 1525 1520 1516 1513 1515 1522 1527 1528 1527 1524 1520 1516 1512 1508 1505 1501 1497 1493 1491 1489 1488 1487 1487 1488 1489 1490 1492 1496 1498 1503 1509 1515 1519 1522 1523
1548 1551 1555 1553 1553 1549 1543 1541 1546 1545 1535 1527 1519 1522 1533 1531 1530 1528 1525 1521 1517 1513 1509 1505 1501 1498 1495 1492 1490 1489 1488 1488 1488 1490 1490 1491 1494 1495 1499 1505 1511 1516 1520 1521
1552 1556 1558 1558 1558 1556 1551 1547 1549 1548 1537 1535 1521 1523 1529 1529 1529 1528 1525 1521 1518 1514 1511 1507 1502 1499 1496 1494 1492 1491 1490 1490 1490 1491 1491 1493 1494 1496 1500 1504 1510 1516 1519 1519
1556 1557 1560 1561 1559 1561 1562 1558 1552 1552 1548 1543 1533 1534 1542 1536 1534 1529 1526 1523 1519 1516 1512 1508 1504 1501 1498 1496 1495 1493 1492 1492 1492 1493 1494 1495 1496 1499 1503 1507 1512 1516 1517 1518
1557 1556 1561 1562 1566 1569 1566 1564 1558 1554 1557 1558 1553 1555 1552 1549 1543 1536 1531 1525 1520 1516 1513 1509 1506 1503 1501 1499 1497 1496 1494 1493 1494 1495 1496 1497 1499 1502 1506 1509 1512 1514 1515 1515
1562 1557 1560 1567 1569 1569 1568 1565 1562 1561 1559 1558 1559 1562 1553 1549 1543 1537 1530 1524 1520 1517 1514 1511 1508 1505 1503 1500 1498 1498 1497 1497 1498 1499 1499 1501 1503 1505 1508 1510 1512 1513 1513 1514
1563 1559 1558 1561 1569 1571 1570 1566 1561 1560 1562 1563 1564 1565 1554 1548 1542 1537 1531 1526 1523 1520 1517 1515 1512 1509 1506 1503 1502 1501 1501 1501 1502 1503 1503 1505 1506 1508 1510 1511 1512 1512 1512 1512
1564 1562 1564 1575 1580 1577 1574 1571 1565 1561 1567 1568 1569 1565 1557 1549 1545 1540 1535 1532 1528 1525 1523 1520 1517 1514 1511 1509 1507 1506 1506 1506 1506 1506 1506 1507 1509 1511 1512 1512 1512 1512 1511 1511
1564 1565 1568 1573 1575 1574 1575 1575 1571 1570 1572 1572 1572 1567 1562 1556 1552 1547 1542 1538 1535 1531 1529 1526 1523 1520 1516 1514 1512 1512 1511 1510 1509 1508 1508 1509 1510 1511 1511 1512 1512 1511 1511 1510
1566 1566 1568 1571 1573 1573 1574 1576 1574 1574 1574 1573 1569 1567 1563 1560 1556 1552 1548 1544 1540 1537 1534 1531 1528 1525 1522 1519 1518 1516 1515 1514 1513 1512 1511 1510 1511 1511 1511 1511 1511 1510 1509 1508
1566 1564 1564 1564 1569 1570 1571 1576 1578 1578 1577 1575 1572 1570 1565 1560 1557 1555 1552 1548 1545 1542 1539 1536 1533 1530 1527 1525 1523 1521 1520 1518 1516 1515 1513 1512 1512 1511 1511 1510 1509 1508 1507 1506
1567 1565 1563 1562 1565 1565 1573 1575 1577 1577 1577 1575 1572 1569 1565 1561 1559 1556 1554 1551 1548 1545 1543 1540 1537 1534 1532 1530 1528 1525 1523 1521 1520 1518 1516 1515 1514 1513 1512 1511 1509 1509 1508 1507
1569 1566 1563 1561 1567 1566 1571 1572 1573 1572 1572 1572 1570 1567 1563 1560 1555 1556 1555 1553 1551 1548 1546 1543 1540 1538 1536 1533 1532 1531 1529 1527 1524 1522 1520 1519 1518 1516 1515 1514 1513 1512 1511 1510
1570 1567 1563 1562 1560 1563 1565 1570 1573 1574 1567 1570 1569 1566 1564 1560 1554 1558 1557 1554 1552 1550 1548 1546 1544 1542 1540 1537 1536 1535 1533 1530 1528 1525 1523 1522 1520 1519 1518 1517 1516 1514 1513 1511
1564 1563 1562 1561 1559 1558 1566 1570 1573 1570 1567 1569 1569 1568 1566 1564 1564 1562 1559 1556 1554 1552 1550 1548 1547 1545 1543 1541 1540 1538 1536 1532 1529 1527 1525 1523 1522 1521 1520 1518 1517 1514 1513 1511
1559 1559 1560 1559 1558 1563 1566 1568 1567 1566 1568 1569 1569 1569 1567 1566 1564 1562 1559 1557 1555 1553 1552 1551 1549 1548 1546 1544 1543 1541 1538 1535 1532 1529 1528 1526 1525 1524 1522 1520 1518 1515 1513 1512
1560 1559 1557 1558 1558 1561 1564 1564 1566 1567 1568 1569 1569 1568 1567 1566 1564 1561 1559 1557 1556 1554 1553 1552 1551 1550 1548 1546 1544 1543 1540 1536 1534 1532 1530 1528 1527 1526 1524 1522 1520 1518 1516 1515
1557 1561 1560 1558 1556 1560 1561 1562 1564 1566 1567 1568 1567 1567 1566 1565 1563 1561 1559 1558 1556 1555 1554 1552 1551 1550 1549 1547 1545 1543 1540 1538 1536 1534 1532 1531 1530 1528 1526 1524 1522 1520 1519 1518
1552 1557 1556 1553 1553 1557 1558 1559 1562 1564 1566 1566 1566 1566 1565 1564 1563 1561 1560 1558 1556 1555 1553 1552 1551 1549 1548 1546 1545 1542 1540 1538 1537 1535 1534 1532 1530 1529 1527 1525 1523 1522 1521 1520
1548 1549 1549 1546 1548 1550 1552 1555 1559 1562 1564 1565 1566 1566 1565 1565 1563 1562 1560 1558 1556 1554 1553 1551 1549 1548 1546 1545 1543 1541 1540 1538 1536 1536 1535 1533 1532 1530 1528 1526 1524 1523 1522 1521